Wind_Speed
9 10 12 12 11 11 12 12 12 13 12 13 14 14 14 14 14 15 16 17 18 17 19 20 19 19 19 17 18 18 18 17 18 19 19 18 18 19 19 21 19 16 17
13 11 12 12 10 10 10 10 10 11 11 11 12 12 13 13 14 15 15 18 22 21 18 18 17 17 17 17 16 16 16 16 17 20 20 17 18 17 17 16 16 17 16
13 11 12 11 9 9 9 9 8 8 8 9 10 10 12 13 14 14 17 18 19 18 17 18 17 16 15 15 15 16 16 16 21 25 21 13 14 16 17 17 17 17 16
14 13 10 10 8 7 8 7 8 7 8 8 9 10 11 13 14 16 17 19 19 17 18 18 18 18 17 17 16 16 16 16 18 17 14 12 12 15 15 15 16 18 16
14 12 11 9 6 6 6 7 8 9 10 10 11 11 12 14 14 15 15 17 16 16 16 16 15 15 15 16 15 16 15 15 20 14 13 14 13 13 13 16 14 14 13
13 11 10 9 10 9 9 9 9 10 11 11 12 11 13 14 14 14 14 16 16 16 16 16 15 14 14 14 14 15 15 15 15 15 13 14 13 14 14 14 13 13 12
14 11 11 11 10 10 10 10 10 10 11 12 12 12 12 12 13 13 14 15 15 15 16 16 16 15 15 15 15 15 15 16 13 14 13 13 14 14 15 15 13 12 11
15 12 10 11 11 12 12 11 11 11 13 11 12 14 13 13 13 13 13 14 14 15 17 17 17 17 17 16 15 15 14 16 13 14 13 11 14 13 13 12 11 11 10
14 12 10 9 11 12 12 11 11 11 12 12 13 13 14 13 13 14 14 14 15 17 16 16 17 17 17 16 16 15 14 15 11 12 11 9 12 11 12 11 10 10 9
13 11 11 12 11 11 10 12 12 12 13 13 13 13 13 12 13 13 13 14 16 15 15 15 15 16 17 17 16 15 16 17 9 11 8 10 10 11 12 10 10 10 10
13 10 11 9 11 12 10 10 10 12 13 12 12 14 16 13 11 12 14 15 15 15 15 15 14 14 16 16 15 17 16 7 8 9 6 10 9 11 11 10 10 11 11
13 12 11 10 10 10 10 11 11 12 10 11 12 13 13 13 14 14 17 15 13 13 12 12 12 11 13 8 8 14 7 8 7 8 6 9 10 10 10 10 11 11 12
12 11 11 11 11 10 10 10 10 10 10 11 13 13 14 13 12 11 11 9 8 10 7 8 8 7 5 7 8 8 9 9 8 7 7 9 10 10 11 12 13 13 14
12 12 11 11 12 11 10 10 12 12 12 12 12 14 14 11 12 10 9 8 8 6 8 8 7 8 7 6 6 7 9 9 8 8 9 11 11 12 13 13 14 14 14
13 13 12 12 12 11 12 12 12 13 12 12 12 12 11 10 9 7 7 6 7 7 7 7 8 8 8 7 7 7 7 8 9 9 8 13 13 14 15 15 15 14 14
13 13 13 13 12 11 12 14 13 13 12 12 11 10 12 7 7 6 5 5 6 6 5 6 8 8 9 8 8 7 7 7 8 9 8 11 14 14 15 15 14 14 13
14 15 15 14 13 13 13 13 13 11 11 11 10 11 9 7 7 7 4 5 4 5 7 6 7 8 8 8 8 7 6 7 6 7 8 7 9 14 13 13 13 12 12
16 17 16 14 14 14 12 13 12 12 11 10 8 7 7 6 8 7 6 5 4 5 6 6 7 6 6 6 5 5 5 6 6 6 6 7 6 6 10 11 12 12 13
16 16 16 15 15 15 14 12 11 11 9 9 8 6 7 6 7 5 5 3 7 5 5 6 5 5 3 4 4 5 4 5 5 4 5 6 5 6 6 7 10 11 12
15 15 15 15 16 15 11 12 10 10 9 9 8 7 7 7 7 8 3 5 7 5 5 4 5 3 3 1 3 4 5 5 5 4 4 5 4 5 4 6 5 6 11
16 16 17 16 16 14 12 12 10 9 9 9 8 9 8 6 6 6 5 5 6 5 5 3 3 4 3 2 2 3 4 5 5 5 4 4 2 3 3 3 6 5 7
18 18 17 16 18 15 13 13 10 10 9 8 8 7 6 6 6 4 7 4 7 3 4 4 5 4 4 4 3 3 4 5 4 3 3 3 3 3 2 3 4 6 7
19 20 19 17 16 15 15 12 10 9 10 8 8 6 6 7 6 6 8 7 5 6 3 4 3 5 4 5 6 2 3 3 3 2 2 1 3 2 2 2 4 5 6
19 18 18 18 17 15 17 12 11 10 10 8 7 7 6 8 7 6 8 8 7 5 5 3 2 5 7 4 5 6 8 5 1 5 2 0 2 1 1 2 3 5 6
20 19 18 17 18 15 18 14 10 10 8 7 7 7 7 7 7 7 9 10 9 4 6 6 3 6 4 5 4 3 5 5 7 1 3 1 1 0 2 3 2 4 6
20 19 18 18 20 20 19 15 12 11 9 8 7 5 6 5 7 7 7 9 9 6 6 6 6 5 5 4 3 4 3 3 4 3 1 1 0 2 2 3 3 3 5
Wind_Direction
160 159 142 122 107 107 108 105 100 95 91 91 88 84 87 88 87 81 81 82 94 99 97 94 92 92 92 93 93 87 89 85 84 79 78 81 81 85 86 81 71 80 83
146 144 136 123 117 120 115 110 102 96 95 90 89 87 87 87 86 85 83 88 94 93 94 93 94 93 94 90 92 90 83 83 87 83 65 63 78 81 87 92 85 87 84
138 142 134 134 130 120 115 113 106 99 95 89 88 91 95 97 92 89 87 94 99 100 95 99 95 95 93 85 90 90 85 85 83 77 80 75 74 80 83 83 79 79 84
135 135 143 143 130 127 119 116 118 109 103 101 104 96 100 103 96 93 89 99 99 95 92 93 92 88 88 85 84 88 86 86 84 80 90 81 73 83 79 78 80 76 68
139 134 142 132 130 128 131 116 107 114 108 108 114 110 107 104 99 103 98 99 95 92 89 89 91 88 86 77 81 85 84 84 83 79 82 90 70 77 82 81 71 79 78
133 134 131 131 126 118 119 121 110 114 106 103 102 106 104 103 104 106 105 102 94 90 89 88 87 88 87 82 77 83 82 83 82 81 73 75 75 74 81 86 78 69 67
135 126 123 124 117 116 114 126 114 115 115 113 113 113 109 107 106 107 107 102 95 93 89 86 87 87 84 79 79 81 81 83 83 83 71 72 69 74 78 75 68 62 59
130 130 123 122 117 111 107 114 118 120 117 109 116 118 115 104 102 104 112 106 99 98 91 87 84 83 80 77 78 80 81 87 78 80 82 72 68 73 78 75 70 65 60
133 134 121 115 115 118 117 119 121 122 119 117 120 114 114 103 106 103 118 111 102 104 92 84 82 77 75 74 73 73 75 80 73 89 75 68 63 68 70 68 65 62 57
135 136 134 124 124 118 116 122 125 125 125 124 122 114 114 101 98 98 108 112 103 99 95 86 80 78 75 71 68 68 71 60 77 71 81 77 65 67 65 63 63 63 62
141 135 134 137 128 131 123 120 123 122 118 109 115 110 90 96 100 106 126 113 111 104 95 84 74 69 72 58 63 67 62 76 73 81 72 70 71 69 67 66 64 63 62
146 140 142 141 134 134 137 125 127 112 125 127 121 112 111 118 126 113 108 107 103 96 83 76 71 67 64 68 36 46 65 65 72 75 70 72 75 73 72 72 69 67 65
148 145 144 150 143 141 150 133 133 128 123 122 116 115 114 106 105 109 97 93 94 82 80 60 53 57 64 82 67 67 58 61 64 72 65 75 78 79 81 78 75 71 66
152 146 149 147 140 139 123 136 140 138 136 128 131 118 110 113 112 112 116 103 92 91 82 73 63 58 67 76 89 82 71 74 75 76 59 75 83 86 85 83 80 72 64
153 150 152 147 142 141 125 130 138 136 133 140 127 126 124 121 116 118 112 110 104 88 80 65 63 67 68 74 83 82 76 75 78 83 73 81 87 88 88 85 80 72 64
159 155 154 148 142 134 141 133 132 135 141 136 134 132 123 121 114 113 106 107 96 95 87 72 76 80 80 74 75 82 80 76 81 87 92 79 86 88 88 85 78 70 62
160 157 152 148 143 136 133 125 130 126 137 138 144 142 135 119 134 118 115 119 114 106 87 65 79 84 83 78 74 68 72 79 81 89 88 99 75 88 89 85 77 67 55
160 158 153 152 148 140 144 129 133 137 134 141 143 144 142 132 134 115 103 121 129 108 91 99 100 93 84 80 76 75 79 86 95 92 96 98 100 93 67 78 76 68 57
161 160 157 158 152 148 146 139 136 142 140 148 144 141 164 144 139 119 119 124 124 115 115 106 87 93 83 73 63 64 87 102 94 104 96 92 96 96 97 75 74 56 48
161 163 161 158 160 154 157 149 148 143 141 149 149 154 133 150 156 134 120 123 125 119 108 117 101 72 80 31 83 88 102 99 105 106 109 99 107 85 82 84 50 28 40
170 168 169 167 172 165 161 157 156 152 157 156 156 163 140 142 139 136 144 118 127 140 134 93 61 63 61 41 111 110 106 91 92 104 117 121 132 100 102 74 54 43 22
181 181 180 179 177 169 180 163 165 165 162 170 168 170 175 165 158 144 147 142 146 163 150 127 100 91 59 75 109 131 139 125 108 116 122 122 143 124 103 59 48 42 37
190 189 190 190 192 188 182 188 183 183 170 168 181 176 189 184 185 173 167 170 163 133 164 119 90 101 84 63 70 89 186 112 157 123 89 128 127 127 106 28 18 12 21
196 194 195 198 201 201 199 199 197 178 190 186 189 195 189 185 194 188 186 181 166 176 175 159 112 103 103 100 81 70 72 98 70 152 121 116 137 109 326 17 351 356 8
196 196 196 194 203 198 199 196 194 184 195 191 191 202 188 194 195 209 196 189 188 160 200 183 153 146 90 100 107 95 68 64 58 84 104 99 150 57 343 356 350 3 355
199 195 195 194 202 203 200 199 184 196 187 180 189 192 179 186 199 190 188 197 206 203 213 197 195 181 156 126 101 85 86 70 53 43 73 64 315 332 332 344 335 347 355
Height
1566 1567 1568 1569 1569 1570 1572 1572 1573 1573 1573 1574 1573 1573 1573 1574 1574 1575 1574 1575 1575 1575 1576 1577 1577 1577 1577 1578 1578 1578 1577 1577 1577 1577 1576 1577 1577 1576 1576 1577 1580 1578 1578
1567 1568 1569 1570 1571 1572 1574 1574 1575 1575 1576 1575 1576 1576 1576 1576 1577 1577 1577 1577 1578 1578 1579 1579 1580 1579 1580 1581 1580 1580 1579 1579 1579 1579 1580 1581 1580 1579 1580 1580 1580 1580 1581
1569 1570 1571 1573 1574 1575 1576 1576 1577 1577 1577 1577 1578 1579 1579 1579 1580 1580 1580 1580 1581 1582 1582 1582 1582 1582 1583 1583 1583 1582 1582 1582 1583 1583 1586 1588 1584 1583 1583 1583 1583 1583 1583
1572 1573 1575 1574 1575 1576 1577 1577 1578 1578 1579 1580 1580 1581 1581 1582 1582 1583 1583 1583 1584 1585 1585 1585 1585 1586 1585 1585 1585 1585 1584 1585 1585 1586 1590 1590 1589 1586 1586 1586 1586 1586 1585
1573 1574 1574 1575 1577 1577 1578 1579 1579 1580 1581 1581 1583 1584 1583 1583 1584 1585 1586 1587 1587 1588 1587 1588 1588 1588 1588 1588 1588 1587 1587 1587 1588 1592 1593 1592 1591 1588 1588 1588 1589 1588 1588
1575 1577 1575 1577 1578 1578 1579 1580 1581 1582 1583 1584 1585 1585 1585 1586 1587 1588 1589 1590 1589 1590 1590 1590 1591 1590 1591 1591 1591 1590 1590 1590 1593 1594 1594 1593 1592 1591 1590 1590 1591 1590 1589
1577 1578 1578 1578 1579 1580 1581 1582 1583 1584 1585 1587 1587 1588 1588 1588 1590 1590 1592 1593 1593 1593 1593 1593 1593 1594 1594 1593 1593 1593 1592 1592 1595 1596 1597 1595 1594 1593 1593 1593 1593 1592 1591
1579 1582 1581 1580 1581 1582 1583 1584 1586 1586 1588 1590 1590 1591 1591 1592 1592 1592 1594 1595 1595 1596 1596 1596 1596 1596 1596 1595 1595 1595 1594 1594 1597 1598 1599 1598 1596 1596 1595 1595 1595 1594 1593
1581 1583 1585 1585 1584 1585 1586 1587 1589 1590 1590 1591 1591 1592 1594 1594 1594 1595 1596 1597 1598 1599 1599 1599 1599 1599 1598 1598 1598 1597 1597 1596 1599 1600 1602 1601 1598 1597 1597 1597 1596 1595 1595
1582 1584 1586 1586 1588 1590 1590 1589 1590 1591 1592 1593 1594 1595 1595 1597 1597 1598 1599 1600 1601 1601 1602 1602 1602 1601 1601 1601 1600 1599 1599 1600 1602 1603 1603 1599 1600 1599 1599 1598 1598 1597 1596
1583 1584 1586 1588 1588 1590 1592 1591 1592 1593 1595 1595 1596 1598 1599 1603 1603 1603 1602 1602 1604 1604 1604 1604 1604 1604 1603 1603 1602 1602 1602 1604 1605 1605 1604 1601 1601 1601 1600 1600 1600 1599 1598
1584 1586 1588 1590 1590 1593 1594 1594 1596 1597 1599 1600 1601 1602 1604 1605 1604 1605 1604 1606 1606 1607 1606 1606 1606 1606 1607 1609 1607 1605 1607 1605 1606 1606 1604 1603 1602 1602 1602 1602 1601 1601 1600
1584 1587 1589 1590 1592 1594 1594 1596 1598 1600 1601 1601 1602 1605 1605 1607 1608 1609 1608 1610 1610 1609 1611 1610 1610 1610 1609 1610 1610 1610 1609 1608 1608 1608 1605 1604 1604 1604 1604 1603 1603 1602 1602
1585 1587 1589 1590 1592 1594 1595 1597 1599 1601 1602 1604 1605 1605 1607 1609 1610 1611 1611 1612 1612 1613 1611 1611 1612 1610 1610 1610 1611 1611 1611 1611 1610 1610 1607 1606 1605 1605 1605 1605 1604 1604 1604
1586 1588 1590 1590 1592 1592 1596 1598 1600 1602 1604 1605 1607 1607 1610 1611 1611 1612 1611 1613 1613 1614 1614 1613 1612 1612 1611 1612 1612 1612 1612 1611 1611 1611 1610 1608 1608 1607 1607 1607 1606 1606 1606
1586 1588 1589 1591 1592 1594 1596 1598 1601 1604 1605 1607 1609 1609 1609 1613 1612 1613 1613 1614 1614 1615 1615 1615 1614 1614 1614 1614 1613 1614 1614 1613 1612 1612 1613 1611 1610 1610 1609 1609 1609 1608 1608
1586 1588 1590 1592 1594 1595 1597 1599 1603 1605 1607 1609 1610 1610 1611 1613 1613 1614 1614 1615 1616 1614 1615 1615 1616 1615 1615 1615 1614 1614 1615 1614 1615 1614 1615 1615 1613 1612 1612 1611 1611 1610 1610
1587 1588 1591 1594 1596 1597 1599 1601 1605 1606 1609 1611 1612 1612 1612 1613 1613 1615 1616 1616 1616 1616 1617 1617 1617 1617 1617 1617 1616 1616 1616 1616 1616 1615 1616 1616 1616 1617 1615 1614 1613 1612 1612
1587 1589 1592 1595 1597 1599 1600 1603 1605 1606 1609 1611 1612 1614 1612 1613 1614 1616 1617 1616 1616 1618 1618 1618 1619 1618 1618 1618 1617 1617 1617 1617 1617 1618 1617 1617 1617 1618 1618 1616 1615 1614 1613
1588 1590 1593 1596 1597 1600 1602 1603 1606 1608 1610 1611 1613 1614 1613 1614 1614 1615 1617 1616 1617 1619 1619 1619 1618 1618 1618 1618 1617 1617 1617 1618 1618 1619 1619 1619 1618 1619 1619 1617 1617 1617 1615
1588 1591 1593 1596 1597 1600 1603 1606 1608 1609 1610 1612 1613 1612 1613 1615 1615 1616 1617 1617 1618 1620 1618 1618 1619 1618 1619 1618 1618 1618 1618 1618 1619 1619 1619 1620 1619 1620 1619 1619 1618 1617 1617
1587 1590 1593 1595 1597 1600 1603 1605 1607 1609 1610 1612 1612 1612 1613 1614 1615 1616 1616 1618 1618 1619 1618 1619 1618 1620 1619 1618 1619 1618 1618 1619 1619 1619 1620 1620 1620 1620 1620 1619 1618 1617 1616
1585 1588 1591 1594 1596 1599 1602 1604 1605 1607 1609 1611 1611 1612 1613 1614 1615 1615 1616 1618 1618 1619 1620 1619 1619 1619 1620 1620 1618 1619 1617 1616 1618 1619 1619 1620 1620 1621 1620 1620 1620 1618 1617
1583 1586 1589 1592 1595 1598 1600 1604 1605 1607 1608 1610 1612 1612 1612 1612 1615 1615 1616 1616 1618 1619 1619 1620 1620 1620 1620 1621 1621 1620 1619 1619 1618 1618 1619 1620 1620 1621 1620 1621 1621 1619 1618
1581 1584 1588 1590 1593 1597 1599 1603 1604 1606 1608 1610 1611 1611 1611 1611 1613 1615 1615 1615 1617 1618 1618 1619 1620 1620 1622 1622 1622 1622 1621 1621 1620 1620 1618 1620 1620 1621 1621 1620 1620 1620 1619
1579 1583 1586 1588 1591 1594 1597 1600 1603 1605 1608 1609 1610 1611 1610 1612 1612 1613 1614 1615 1615 1617 1617 1618 1619 1620 1621 1621 1622 1623 1623 1622 1622 1621 1620 1621 1621 1621 1621 1620 1619 1619 1618